Michigan City, IN

12:38 AM CDT on July 28, 2017 (GMT -0500)
Michigan City Municipal

Weather History for KMGC - February, 2012

Change the Weather History Date:

Saturday, February 11, 2012

  Actual Average (KSBN) Record (KSBN)
Temperature  
Mean Temperature 18 °F -  
Max Temperature 21 °F 31 °F 72 °F (1999)
Min Temperature 15 °F 17 °F -12 °F (1899)
Degree Days  
Heating Degree Days 47    
Moisture  
Dew Point 11 °F    
Average Humidity 71    
Maximum Humidity 93    
Minimum Humidity 54    
Precipitation  
Precipitation 0.00 in - - ()
Sea Level Pressure  
Sea Level Pressure 30.26 in    
Wind  
Wind Speed 10 mph ()    
Max Wind Speed 22 mph    
Max Gust Speed 34 mph    
Visibility 6.9 miles    
Events Snow    
Averages and records for this station are not official NWS values.
T = Trace of Precipitation, MM = Missing Value Source: Averaged Metar Reports

Daily Weather History Graph

Daily Weather History Graph

Search for Another Location

Airport or City:

Trip Planner

Search our weather history database for the weather conditions in past years. The results will help you decide how hot, cold, wet, or windy it might be!

Date:

Astronomy

Feb. 11, 2012 Rise Set
Actual Time 6:48 AM CST 5:15 PM CST
Civil Twilight 6:19 AM CST 5:43 PM CST
Nautical Twilight 5:47 AM CST 6:16 PM CST
Astronomical Twilight 5:14 AM CST 6:48 PM CST
Moon 10:07 PM CST (2/11) 8:25 AM CST (2/11)
Length of Visible Light 11h 23m
Length of Day
10h 26m
Waning Gibbous, 82% of the Moon is Illuminated
Feb 11
Waning Gibbous
Feb 14
Last Quarter
Feb 21
New
Feb 29
First Quarter
Mar 8
Full

Hourly Weather History & Observations

Time (CST) Temp. Windchill Dew Point Humidity Pressure Visibility Wind Dir Wind Speed Gust Speed Precip Events Conditions
12:15 AM 21.2 °F 11.7 °F 15.8 °F 80% 30.09 in 10.0 mi NNE 8.1 mph 19.6 mph N/A Snow Light Snow
12:35 AM 21.2 °F 10.9 °F 15.8 °F 80% 30.10 in 10.0 mi NE 9.2 mph 18.4 mph N/A   Overcast
12:55 AM 19.4 °F 10.4 °F 14.0 °F 80% 30.10 in 5.0 mi ENE 6.9 mph - N/A Snow Light Snow
1:15 AM 19.4 °F 9.5 °F 12.2 °F 74% 30.12 in 5.0 mi NE 8.1 mph - N/A Snow Light Snow
1:35 AM 17.6 °F 12.3 °F 14.0 °F 86% 30.13 in 0.8 mi NNE 3.5 mph - N/A Snow Snow
1:55 AM 17.6 °F - 14.0 °F 86% 30.14 in 0.5 mi Calm Calm - N/A Snow Heavy Snow
2:15 AM 17.6 °F - 14.0 °F 86% 30.14 in 0.2 mi Calm Calm - N/A Snow Heavy Snow
2:35 AM 17.6 °F 9.3 °F 14.0 °F 86% 30.13 in 0.2 mi East 5.8 mph - N/A Snow Heavy Snow
2:55 AM 17.6 °F - 14.0 °F 86% 30.14 in 0.8 mi Calm Calm - N/A Snow Snow
3:15 AM 15.8 °F - 14.0 °F 93% 30.14 in 1.5 mi Calm Calm - N/A Snow Light Snow
3:35 AM 15.8 °F 10.2 °F 14.0 °F 93% 30.14 in 4.0 mi WNW 3.5 mph - N/A Snow Light Snow
3:55 AM 21.2 °F 8.3 °F 15.8 °F 80% 30.15 in 7.0 mi NNW 13.8 mph 26.5 mph N/A   Overcast
4:15 AM 21.2 °F 7.8 °F 14.0 °F 74% 30.15 in 10.0 mi NW 15.0 mph 23.0 mph N/A   Overcast
4:35 AM 21.2 °F 7.8 °F 14.0 °F 74% 30.17 in 10.0 mi NNW 15.0 mph 21.9 mph N/A   Overcast
4:55 AM 21.2 °F 7.8 °F 14.0 °F 74% 30.17 in 10.0 mi NNW 15.0 mph 20.7 mph N/A   Overcast
5:15 AM 21.2 °F 6.8 °F 14.0 °F 74% 30.18 in 7.0 mi NW 17.3 mph 27.6 mph N/A   Overcast
5:35 AM 21.2 °F 8.9 °F 12.2 °F 68% 30.19 in 10.0 mi NNW 12.7 mph 25.3 mph N/A   Overcast
5:55 AM 21.2 °F 8.3 °F 15.8 °F 80% 30.19 in 7.0 mi NW 13.8 mph 23.0 mph N/A Snow Light Snow
6:15 AM 21.2 °F 9.5 °F 12.2 °F 68% 30.20 in 10.0 mi NNW 11.5 mph 20.7 mph N/A   Overcast
6:35 AM 21.2 °F 7.8 °F 15.8 °F 80% 30.21 in 2.0 mi NW 15.0 mph 20.7 mph N/A Snow Light Snow
6:55 AM 21.2 °F 8.3 °F 17.6 °F 86% 30.22 in 3.0 mi NW 13.8 mph 24.2 mph N/A Snow Light Snow
7:15 AM 21.2 °F 7.3 °F 17.6 °F 86% 30.23 in 0.5 mi NW 16.1 mph 21.9 mph N/A Snow Light Snow
7:35 AM 19.4 °F 4.5 °F 17.6 °F 93% 30.24 in 0.5 mi NW 17.3 mph 26.5 mph N/A Snow Snow
7:55 AM 19.4 °F 3.6 °F 17.6 °F 93% 30.24 in 0.5 mi NW 19.6 mph 28.8 mph N/A Snow Light Snow
8:15 AM 21.2 °F 7.3 °F 17.6 °F 86% 30.25 in 2.0 mi NW 16.1 mph 25.3 mph N/A Snow Light Snow
8:35 AM 19.4 °F 6.0 °F 15.8 °F 86% 30.26 in 0.8 mi NW 13.8 mph 26.5 mph N/A Snow Light Snow
8:55 AM 19.4 °F 6.0 °F 17.6 °F 93% 30.27 in 1.2 mi NW 13.8 mph 27.6 mph N/A Snow Light Snow
9:15 AM 19.4 °F 4.5 °F 15.8 °F 86% 30.27 in 1.5 mi NW 17.3 mph 26.5 mph N/A Snow Light Snow
9:35 AM 19.4 °F 4.1 °F 15.8 °F 86% 30.28 in 1.8 mi NW 18.4 mph 25.3 mph N/A Snow Light Snow
9:55 AM 19.4 °F 5.0 °F 14.0 °F 80% 30.29 in 1.0 mi NW 16.1 mph 34.5 mph N/A Snow Light Snow
10:15 AM 19.4 °F 2.8 °F 14.0 °F 80% 30.30 in 1.8 mi NW 21.9 mph 31.1 mph N/A Snow Light Snow
10:35 AM 19.4 °F 4.1 °F 14.0 °F 80% 30.30 in 2.5 mi NW 18.4 mph 28.8 mph N/A Snow Light Snow
10:55 AM 19.4 °F 4.5 °F 14.0 °F 80% 30.30 in 4.0 mi NW 17.3 mph 25.3 mph N/A Snow Light Snow
11:15 AM 19.4 °F 4.5 °F 14.0 °F 80% 30.30 in 3.0 mi NW 17.3 mph 27.6 mph N/A Snow Light Snow
11:35 AM 19.4 °F 5.5 °F 12.2 °F 74% 30.30 in 1.8 mi NW 15.0 mph 31.1 mph N/A   Haze
11:55 AM 19.4 °F 4.5 °F 12.2 °F 74% 30.30 in 4.0 mi NW 17.3 mph 25.3 mph N/A   Haze
12:15 PM 19.4 °F 5.5 °F 12.2 °F 74% 30.31 in 7.0 mi NW 15.0 mph 25.3 mph N/A   Overcast
12:35 PM 19.4 °F 7.2 °F 10.4 °F 68% 30.31 in 10.0 mi NW 11.5 mph 21.9 mph N/A   Overcast
12:55 PM 17.6 °F 2.7 °F 10.4 °F 73% 30.31 in 10.0 mi WNW 16.1 mph 23.0 mph N/A   Overcast
1:15 PM 17.6 °F 2.7 °F 8.6 °F 68% 30.31 in 10.0 mi WNW 16.1 mph 23.0 mph N/A   Overcast
1:35 PM 17.6 °F 5.0 °F 8.6 °F 68% 30.31 in 10.0 mi NW 11.5 mph 19.6 mph N/A   Overcast
1:55 PM 17.6 °F 5.7 °F 8.6 °F 68% 30.32 in 10.0 mi WNW 10.4 mph 18.4 mph N/A   Overcast
2:15 PM 17.6 °F 5.7 °F 8.6 °F 68% 30.32 in 10.0 mi WNW 10.4 mph 18.4 mph N/A   Overcast
2:35 PM 17.6 °F 5.7 °F 6.8 °F 63% 30.32 in 10.0 mi WNW 10.4 mph - N/A   Overcast
2:55 PM 17.6 °F 5.7 °F 6.8 °F 63% 30.33 in 10.0 mi WNW 10.4 mph 20.7 mph N/A   Overcast
3:15 PM 19.4 °F 7.2 °F 6.8 °F 58% 30.32 in 10.0 mi WNW 11.5 mph 18.4 mph N/A   Overcast
3:35 PM 19.4 °F 8.6 °F 6.8 °F 58% 30.32 in 10.0 mi NW 9.2 mph 19.6 mph N/A   Overcast
3:55 PM 19.4 °F 6.6 °F 5.0 °F 54% 30.32 in 10.0 mi WNW 12.7 mph 18.4 mph N/A   Mostly Cloudy
4:15 PM 19.4 °F 7.2 °F 5.0 °F 54% 30.32 in 10.0 mi WNW 11.5 mph 17.3 mph N/A   Overcast
4:35 PM 19.4 °F 10.4 °F 5.0 °F 54% 30.32 in 10.0 mi NW 6.9 mph 16.1 mph N/A   Overcast
4:55 PM 19.4 °F 9.5 °F 5.0 °F 54% 30.33 in 10.0 mi NW 8.1 mph - N/A   Mostly Cloudy
5:15 PM 17.6 °F 5.7 °F 5.0 °F 58% 30.33 in 10.0 mi WNW 10.4 mph - N/A   Mostly Cloudy
5:35 PM 17.6 °F 8.2 °F 5.0 °F 58% 30.33 in 10.0 mi WNW 6.9 mph - N/A   Mostly Cloudy
5:55 PM 19.4 °F 7.2 °F 5.0 °F 54% 30.33 in 10.0 mi NW 11.5 mph - N/A   Scattered Clouds
6:15 PM 19.4 °F 7.9 °F 6.8 °F 58% 30.33 in 10.0 mi WNW 10.4 mph 17.3 mph N/A   Scattered Clouds
6:35 PM 19.4 °F 8.6 °F 6.8 °F 58% 30.34 in 10.0 mi WNW 9.2 mph 19.6 mph N/A   Mostly Cloudy
6:55 PM 21.2 °F 9.5 °F 8.6 °F 58% 30.33 in 10.0 mi WNW 11.5 mph 20.7 mph N/A   Overcast
7:15 PM 21.2 °F 8.9 °F 6.8 °F 54% 30.32 in 10.0 mi WNW 12.7 mph 24.2 mph N/A   Scattered Clouds
7:35 PM 21.2 °F 10.1 °F 8.6 °F 58% 30.33 in 10.0 mi NW 10.4 mph 20.7 mph N/A   Scattered Clouds
7:55 PM 21.2 °F 10.9 °F 8.6 °F 58% 30.33 in 10.0 mi NW 9.2 mph 18.4 mph N/A   Mostly Cloudy
8:15 PM 21.2 °F 8.3 °F 8.6 °F 58% 30.32 in 10.0 mi NW 13.8 mph 21.9 mph N/A   Mostly Cloudy
8:35 PM 21.2 °F 11.7 °F 8.6 °F 58% 30.32 in 10.0 mi NNW 8.1 mph 21.9 mph N/A   Mostly Cloudy
8:55 PM 21.2 °F 8.9 °F 8.6 °F 58% 30.32 in 10.0 mi NW 12.7 mph 19.6 mph N/A   Mostly Cloudy
9:15 PM 21.2 °F 8.9 °F 8.6 °F 58% 30.32 in 10.0 mi NW 12.7 mph 20.7 mph N/A   Mostly Cloudy
9:35 PM 21.2 °F 7.3 °F 8.6 °F 58% 30.31 in 10.0 mi NW 16.1 mph 24.2 mph N/A   Mostly Cloudy
9:55 PM 21.2 °F 10.1 °F 8.6 °F 58% 30.31 in 10.0 mi NW 10.4 mph 23.0 mph N/A   Mostly Cloudy
10:15 PM 21.2 °F 9.5 °F 8.6 °F 58% 30.30 in 10.0 mi WNW 11.5 mph 23.0 mph N/A   Mostly Cloudy
10:35 PM 21.2 °F 10.9 °F 10.4 °F 63% 30.30 in 10.0 mi WNW 9.2 mph 18.4 mph N/A   Mostly Cloudy
10:55 PM 21.2 °F 10.1 °F 8.6 °F 58% 30.30 in 10.0 mi NW 10.4 mph 17.3 mph N/A   Mostly Cloudy
11:15 PM 21.2 °F 9.5 °F 10.4 °F 63% 30.30 in 10.0 mi NW 11.5 mph 19.6 mph N/A   Overcast
11:35 PM 21.2 °F 8.9 °F 10.4 °F 63% 30.29 in 10.0 mi WNW 12.7 mph 17.3 mph N/A   Overcast
11:55 PM 21.2 °F 8.9 °F 10.4 °F 63% 30.29 in 10.0 mi NW 12.7 mph 19.6 mph N/A   Overcast